Tracking 19709 objects as of 20-Jun-2019
HD Live streaming from Space Station
objects crossing your sky now

FLOCK 4A 5

Track FLOCK 4A 5 now!
10-day predictions
FLOCK 4A 5 is classified as:


NORAD ID: 44095
Int'l Code: 2019-018T
Perigee: 498.4 km
Apogee: 514.7 km
Inclination: 97.5 °
Period: 94.6 minutes
Semi major axis: 6877 km
RCS: Unknown
Launch date: April 1, 2019
Source: United States (US)
Launch site: SRIHARIKOTA (SRI)
aabbcc
Your satellite tracking list
Your tracking list is empty




NASA's NSSDC Master Catalog

Two Line Element Set (TLE):
1 44095U 19018T   19171.15270128  .00000817  00000-0  38707-4 0  9991
2 44095  97.4570 231.0694 0011816  21.1412 339.0310 15.22125822 12135
Source of the keplerian elements: AFSPC